Location: Unspecified
(0.0000°N, 0.0000°E)
Time: 23:50:51
(UTC+00:00)

OTV 5 (USA 277) - Pass Details

Date: 20 July 2019
Orbit: 299 x 335 km, 54.5° (Epoch: 13 July)

Event Time Altitude Azimuth Distance (km) Brightness Sun altitude
Rises 19:53:47 0° 298° (WNW) 2,082 ? -25.0°
Reaches altitude 10° 19:56:31 10° 268° (W) 1,245 ? -25.6°
Enters shadow 19:57:07 12° 256° (WSW) 1,141 ? -25.8°
